Location: Newark
(25.6108°S, 54.5803°W)
Time: 11:28:23
(UTC+00:00)

Transit 2A - Pass Details

Date: 05 November 2020
Orbit: 595 x 964 km, 66.7° (Epoch: 28 November)

Event Time Altitude Azimuth Distance (km) Brightness Sun altitude
Rises 01:45:30 0° 230° (SW) 3,339 10.1 -42.4°
Reaches altitude 10° 01:48:51 10° 251° (WSW) 2,475 9.0 -42.8°
Enters shadow 01:49:14 11° 255° (WSW) 2,402 8.9 -42.9°
